Weather History for Houston, TX

Change the Weather History Date:

Sunday, March 31, 2013

  Actual Average Record
Temperature  
Mean Temperature 72 °F 66 °F  
Max Temperature 85 °F 77 °F 88 °F (1946)
Min Temperature 59 °F 56 °F 30 °F (1987)
Degree Days  
Heating Degree Days 0 2  
Month to date heating degree days 176 142  
Since 1 July heating degree days 1106 1329  
Cooling Degree Days 7 3  
Month to date cooling degree days 65 71  
Year to date cooling degree days 105 109  
Growing Degree Days 23 (Base 50)    
Moisture  
Dew Point 63 °F    
Average Humidity 72    
Maximum Humidity 93    
Minimum Humidity 51    
Precipitation  
Precipitation 0.35 in 0.10 in 1.44 in (2007)
Month to date precipitation 0.89 3.41  
Year to date precipitation 5.42 9.99  
Sea Level Pressure  
Sea Level Pressure 29.94 in    
Wind  
Wind Speed 6 mph (SSE)    
Max Wind Speed 31 mph    
Max Gust Speed 36 mph    
Visibility 7 miles    
Events Fog , Rain , Thunderstorm    
T = Trace of Precipitation, MM = Missing Value Source: NWS Daily Summary

Daily Weather History Graph

Daily Weather History Graph

Search for Another Location

Airport:

Trip Planner

Search our weather history database for the weather conditions in past years. The results will help you decide how hot, cold, wet, or windy it might be!

Date:

Astronomy

Mar. 31, 2013 Rise Set
Actual Time 7:11 AM CDT 7:39 PM CDT
Civil Twilight 6:47 AM CDT 8:03 PM CDT
Nautical Twilight 6:19 AM CDT 8:31 PM CDT
Astronomical Twilight 5:51 AM CDT 8:59 PM CDT
Moon No Moon Rise 10:19 AM CDT (3/31)
Length of Visible Light 13h 15m
Length of Day
12h 27m
Waning Gibbous, 77% of the Moon is Illuminated
Mar 31
Waning Gibbous
Apr 2
Last Quarter
Apr 10
New
Apr 18
First Quarter
Apr 25
Full

Hourly Weather History & Observations

Time (CDT) Temp. Heat Index Dew Point Humidity Pressure Visibility Wind Dir Wind Speed Gust Speed Precip Events Conditions
12:26 AM 66.2 °F - 64.4 °F 94% 29.98 in 8.0 mi South 6.9 mph - N/A   Scattered Clouds
12:53 AM 66.9 °F - 64.0 °F 90% 29.99 in 8.0 mi South 5.8 mph - N/A   Scattered Clouds
1:53 AM 64.9 °F - 63.0 °F 93% 29.99 in 8.0 mi SSE 3.5 mph - N/A   Mostly Cloudy
2:14 AM 66.2 °F - 64.4 °F 94% 29.98 in 8.0 mi Calm Calm - N/A   Scattered Clouds
2:53 AM 64.9 °F - 63.0 °F 93% 29.97 in 7.0 mi Calm Calm - N/A Fog Patches of Fog
3:53 AM 64.0 °F - 62.1 °F 93% 29.96 in 5.0 mi Calm Calm - N/A   Mostly Cloudy
4:03 AM 64.4 °F - 62.6 °F 94% 29.94 in 3.0 mi Calm Calm - N/A   Scattered Clouds
4:22 AM 62.6 °F - 60.8 °F 94% 29.94 in 2.0 mi Calm Calm - N/A   Scattered Clouds
4:28 AM 62.6 °F - 60.8 °F 94% 29.94 in 1.5 mi Calm Calm - N/A   Mostly Cloudy
4:53 AM 64.0 °F - 62.1 °F 93% 29.96 in 1.8 mi Calm Calm - N/A   Overcast
5:00 AM 64.4 °F - 62.6 °F 94% 29.94 in 3.0 mi Calm Calm - N/A   Overcast
5:28 AM 64.4 °F - 62.6 °F 94% 29.94 in 2.0 mi Calm Calm - N/A   Overcast
5:38 AM 64.4 °F - 62.6 °F 94% 29.94 in 4.0 mi Calm Calm - N/A   Overcast
5:53 AM 64.9 °F - 64.0 °F 97% 29.95 in 4.0 mi SSE 3.5 mph - N/A   Overcast
6:53 AM 66.0 °F - 64.0 °F 93% 29.97 in 6.0 mi South 3.5 mph - N/A   Overcast
7:15 AM 66.2 °F - 64.4 °F 94% 29.95 in 6.0 mi South 3.5 mph - N/A   Overcast
7:28 AM 66.2 °F - 64.4 °F 94% 29.95 in 5.0 mi South 3.5 mph - N/A   Overcast
7:53 AM 66.0 °F - 64.0 °F 93% 29.96 in 6.0 mi SE 4.6 mph - N/A   Mostly Cloudy
8:07 AM 66.2 °F - 64.4 °F 94% 29.94 in 6.0 mi SSE 4.6 mph - N/A   Mostly Cloudy
8:35 AM 68.0 °F - 64.4 °F 88% 29.94 in 6.0 mi South 4.6 mph - N/A   Mostly Cloudy
8:50 AM 68.0 °F - 64.4 °F 88% 29.94 in 8.0 mi South 8.1 mph - N/A   Mostly Cloudy
8:53 AM 68.0 °F - 66.0 °F 93% 29.96 in 8.0 mi South 5.8 mph - N/A   Mostly Cloudy
9:07 AM 69.8 °F - 66.2 °F 88% 29.94 in 8.0 mi South 4.6 mph - N/A   Mostly Cloudy
9:53 AM 71.1 °F - 64.9 °F 81% 29.97 in 10.0 mi SSW 11.5 mph 17.3 mph N/A   Mostly Cloudy
10:22 AM 73.4 °F - 64.4 °F 73% 29.96 in 10.0 mi SW 11.5 mph - N/A   Overcast
10:53 AM 75.0 °F - 64.0 °F 69% 29.97 in 10.0 mi SSW 15.0 mph 19.6 mph N/A   Overcast
11:53 AM 75.9 °F - 64.0 °F 67% 29.96 in 10.0 mi SW 11.5 mph - N/A   Overcast
12:53 PM 80.1 °F 81.7 °F 64.0 °F 58% 29.94 in 10.0 mi SSW 17.3 mph 20.7 mph N/A   Mostly Cloudy
1:53 PM 82.0 °F 83.1 °F 63.0 °F 52% 29.94 in 10.0 mi SW 8.1 mph - N/A   Mostly Cloudy
2:53 PM 82.9 °F 84.0 °F 63.0 °F 51% 29.89 in 10.0 mi SSW 16.1 mph - N/A   Mostly Cloudy
3:53 PM 84.0 °F 84.5 °F 62.1 °F 47% 29.88 in 10.0 mi SSW 13.8 mph 18.4 mph N/A   Mostly Cloudy
4:53 PM 82.0 °F 83.0 °F 62.1 °F 51% 29.92 in 10.0 mi Variable 4.6 mph - N/A   Mostly Cloudy
5:02 PM 71.6 °F - 60.8 °F 69% 29.91 in 7.0 mi North 29.9 mph 42.6 mph N/A   Squalls
5:06 PM 71.6 °F - 60.8 °F 69% 29.90 in 10.0 mi NNE 34.5 mph 42.6 mph 0.00 in Rain , Thunderstorm Light Thunderstorms and Rain
5:14 PM 68.0 °F - 59.0 °F 73% 29.90 in 8.0 mi NNE 27.6 mph 39.1 mph 0.00 in Rain , Thunderstorm Light Thunderstorms and Rain
5:20 PM 68.0 °F - 60.8 °F 78% 29.90 in 8.0 mi NNE 21.9 mph 39.1 mph 0.00 in Rain , Thunderstorm Light Thunderstorms and Rain
5:27 PM 64.4 °F - 60.8 °F 88% 29.92 in 6.0 mi NNE 13.8 mph 28.8 mph 0.06 in Rain , Thunderstorm Thunderstorms and Rain
5:35 PM 64.4 °F - 60.8 °F 88% 29.94 in 1.0 mi NNE 8.1 mph - 0.32 in Rain , Thunderstorm Thunderstorms and Rain
5:41 PM 64.4 °F - 60.8 °F 88% 29.90 in 0.5 mi ENE 13.8 mph - 0.58 in Fog , Rain , Thunderstorm Heavy Thunderstorms and Rain
5:53 PM 64.9 °F - 61.0 °F 87% 29.91 in 0.5 mi East 15.0 mph 19.6 mph 0.61 in Fog , Rain , Thunderstorm Light Thunderstorms and Rain
5:55 PM 64.4 °F - 60.8 °F 88% 29.90 in 10.0 mi East 12.7 mph 19.6 mph 0.00 in Rain Light Rain
6:53 PM 66.0 °F - 62.1 °F 87% 29.91 in 10.0 mi ESE 10.4 mph 23.0 mph 0.01 in   Mostly Cloudy
7:53 PM 66.0 °F - 62.1 °F 87% 29.93 in 10.0 mi SE 6.9 mph 16.1 mph N/A   Mostly Cloudy
8:53 PM 64.0 °F - 61.0 °F 90% 29.96 in 10.0 mi South 4.6 mph - N/A   Mostly Cloudy
9:53 PM 64.0 °F - 60.1 °F 87% 29.95 in 10.0 mi ESE 4.6 mph - N/A   Mostly Cloudy
10:53 PM 63.0 °F - 60.1 °F 90% 29.97 in 10.0 mi SSW 3.5 mph - N/A   Mostly Cloudy
11:53 PM 63.0 °F - 60.1 °F 90% 29.98 in 10.0 mi Calm Calm - N/A   Scattered Clouds